Find Starlink 32770

NORAD ID: 62741 Int'l Des: 2025-014 Owner: SPXS Country: US Constellation: starlink operational
LEOCIRCULAR

Live Position

Loading 3D Globe...

About Starlink 32770

Description loading...

Upcoming Passes

Passes for default location (London). Set your location on the main map for personalized predictions.

Altitude History

Loading altitude history...

Two-Line Element Set

1 62741U 25014G 26122.33156816 .00008947 00000-0 33438-3 0 9990
2 62741 42.9973 211.2396 0001796 278.6711 81.3937 15.27569086 71463
Epoch: May 2, 2026 • Age: 9 hours

Current Status

Altitude 484.4 km
Velocity 7.62 km/s
Sub-Earth Point -11.31°S, 76.57°E
Launch Date Jan 21, 2025
Age 1.2 years
Type internet

Technical Details

Classification Payload
Mass 730.00 kg
Dry Mass 700.00 kg
Total Mass 730.00 kg
Length 0.30 m
Diameter 4.10 m
Span 29.00 m
Shape Box + pan
Manufacturer SPXS
Bus Type Starlink V2M
Phase Status In Orbit
Owner/State SPXS/US

Most Searched